Retour au catalogue

XINZHENGCHENG 01

ActifMilitairePO
NORAD 68414·PAYLOAD·🇨🇳 China

Lancé Mar 30, 2026 depuis Jiuquan Satellite Launch Center

Loading…

Prochains Passages (prochaines 24 heures)

TLE

FraisSource: Space-Track

Époque: Sep 13, 2026, 19:28 UTC

1 68414U 26066C   26256.81132835  .00000806  00000-0  82597-4 0  9994
2 68414  84.9708 171.3413 0024288 308.0360  51.8671 14.88771406 24915

Suivez XINZHENGCHENG 01 en temps réel avec AllMySat

Download on the App Store